RH
75 67 59 48 38 32 28 23 20 22 21 19 18 17 16 16 16 14 13 22 68 99 99 99 82 73 63 64 69 74 38 14 13 14 15 14 13 13
51 44 37 29 23 17 14 13 11 9 10 12 10 10 10 10 11 11 11 12 31 100 100 98 98 75 66 64 69 75 73 41 17 17 17 16 18 23
22 16 12 10 10 9 7 7 6 5 5 5 5 4 4 5 5 9 54 26 21 94 100 99 99 85 73 67 74 71 81 76 56 27 18 17 21 26
17 14 10 9 8 7 7 7 7 6 5 5 5 5 6 4 3 12 24 34 52 61 100 100 100 98 82 84 70 78 78 84 83 44 51 32 34 34
10 9 8 8 9 12 16 16 22 46 34 6 3 4 7 12 6 13 30 36 100 100 100 100 100 100 97 100 92 94 80 90 77 83 80 60 64 64
7 10 12 15 24 30 32 34 36 34 35 25 9 4 8 25 22 11 31 43 65 96 100 100 100 100 100 100 99 99 97 96 93 87 87 75 70 70
14 29 47 57 58 54 58 64 58 56 54 45 35 15 12 32 39 24 23 47 43 64 100 100 100 100 99 99 100 100 100 98 96 94 91 82 76 75
57 69 68 74 80 89 85 76 79 78 73 93 78 32 22 20 42 42 30 67 48 68 100 100 100 100 100 100 100 100 100 100 100 100 100 100 98 95
67 79 86 76 62 68 95 86 73 74 82 90 78 65 24 22 28 43 43 76 65 46 95 100 100 100 100 100 100 100 100 100 100 99 100 100 99 100
77 86 77 76 77 82 93 90 88 84 83 96 86 97 89 30 22 34 45 60 92 63 64 99 100 100 100 100 100 100 100 100 100 100 100 100 100 100
80 95 98 93 100 100 99 94 87 85 92 90 94 72 77 100 33 22 37 47 84 84 62 92 100 100 100 100 100 100 100 100 100 100 100 100 100 100
100 100 100 100 99 100 100 100 100 98 100 100 98 54 30 76 84 18 25 40 59 100 76 78 100 100 100 100 100 100 100 100 100 100 100 100 100 100
100 100 99 93 87 100 100 98 99 100 100 100 93 46 27 19 76 42 14 26 37 84 99 68 93 100 100 100 100 100 100 100 100 100 100 100 100 100
96 100 100 100 100 100 99 89 81 90 100 100 100 63 45 21 37 48 23 14 25 43 99 83 70 93 100 100 100 100 100 100 100 100 100 100 100 100
97 100 99 100 100 93 90 100 100 100 100 100 100 95 47 22 66 99 57 14 15 23 75 93 58 57 99 100 100 100 100 100 100 100 100 100 100 100
84 100 100 100 99 91 39 39 44 57 81 99 100 100 86 26 49 98 66 20 10 14 30 92 67 49 76 100 100 100 100 100 100 100 100 100 100 100
98 100 99 95 100 67 90 75 98 64 41 91 100 100 69 27 38 81 87 36 11 9 12 65 73 49 48 91 100 100 100 100 100 100 100 100 100 100
100 100 94 81 88 94 82 84 59 82 55 96 92 52 23 44 39 29 30 25 18 8 9 26 62 73 47 51 92 99 100 100 100 98 100 100 100 100
100 95 88 84 84 77 82 75 79 95 96 82 58 11 8 39 54 60 51 37 25 13 9 8 38 62 59 45 54 94 98 100 100 100 100 100 100 100
100 98 94 84 70 60 50 72 100 100 100 100 95 64 14 0 9 15 30 33 28 20 13 9 18 28 66 58 46 54 89 98 100 100 99 99 98 100
100 100 100 100 95 91 66 64 94 100 98 100 100 100 71 13 8 29 32 35 39 26 18 11 13 20 48 55 52 48 52 86 96 100 100 100 100 99
100 94 94 99 100 85 78 70 87 95 97 100 100 93 100 98 28 24 37 43 38 27 19 15 15 17 22 37 52 46 48 52 60 71 77 84 92 97
100 100 100 96 97 99 100 95 97 100 100 100 76 85 96 100 100 100 68 42 77 94 88 43 17 16 16 20 28 34 37 40 44 53 91 100 100 88
Wind_Speed
66 69 70 69 70 70 70 72 76 78 78 73 77 81 82 84 81 78 74 80 75 75 85 86 84 82 79 73 69 68 66 65 65 63 60 58 53 53
75 77 78 78 79 77 76 76 76 77 81 81 81 84 86 82 82 80 78 81 77 74 82 87 87 88 84 81 73 73 69 66 67 66 63 60 59 55
80 79 80 81 82 82 82 82 83 81 80 75 79 79 81 82 82 81 79 82 81 80 78 91 96 94 90 85 79 77 74 69 70 70 66 64 62 61
80 82 83 82 80 78 76 73 73 78 83 80 77 79 80 81 83 84 89 88 76 78 81 83 94 101 95 92 85 82 79 77 72 70 67 67 65 65
83 81 77 68 63 56 54 53 54 53 59 70 76 81 81 78 83 85 92 90 81 82 76 74 91 102 104 99 92 90 85 83 75 74 71 71 70 68
71 62 54 47 43 41 41 43 46 50 53 55 59 71 80 78 79 83 88 94 90 83 79 71 81 82 91 103 99 95 91 89 83 79 77 76 72 69
41 37 36 36 37 37 38 37 39 43 47 50 53 58 73 79 79 77 81 85 88 88 79 67 70 78 85 83 94 100 96 91 89 84 81 81 77 74
29 30 33 36 39 42 44 43 43 45 43 47 47 54 59 70 77 77 76 77 86 91 79 68 57 63 73 77 78 74 77 83 85 84 84 80 78 80
30 33 37 39 42 43 45 43 43 45 44 46 45 44 54 60 70 76 77 76 81 91 96 77 65 56 62 61 66 71 73 68 68 69 69 78 73 73
37 39 40 41 44 45 43 43 43 44 45 43 42 44 47 53 63 77 80 77 79 85 83 94 65 62 64 53 49 53 59 63 65 64 63 63 67 73
41 44 45 46 48 48 48 49 49 50 51 49 42 36 44 52 58 72 79 80 77 78 78 88 88 69 68 54 51 47 52 63 67 68 66 64 65 64
41 35 36 37 41 47 49 49 49 51 52 53 42 37 41 51 57 66 78 80 77 76 73 76 76 70 64 66 57 54 54 60 64 64 62 61 57 58
29 29 32 35 36 34 28 29 32 39 46 45 39 27 36 49 57 61 69 80 78 74 72 70 75 86 65 64 55 57 53 56 58 53 53 56 58 56
30 29 25 29 22 18 22 26 30 32 34 42 38 34 26 40 51 56 61 73 79 76 72 71 70 74 80 70 67 54 58 58 52 52 58 52 54 53
14 12 12 14 20 23 25 27 26 31 34 39 37 35 27 29 46 55 58 64 76 77 73 72 69 69 75 77 73 67 62 60 54 49 51 49 50 52
11 9 9 11 16 12 7 11 14 16 22 24 35 36 31 31 44 52 51 57 69 75 74 70 71 70 70 78 74 74 71 69 63 62 58 61 52 58
12 12 11 12 11 9 12 18 17 16 16 20 23 29 23 29 37 45 47 48 59 71 73 71 73 73 69 70 72 81 77 73 66 64 68 57 54 53
13 14 12 12 10 9 10 6 6 11 10 9 13 16 17 22 27 35 41 43 47 61 70 71 72 71 70 68 64 66 81 78 71 65 72 65 55 59
15 13 10 10 10 10 8 4 7 4 16 12 1 15 17 21 22 28 32 35 38 47 60 67 68 69 69 68 64 60 61 62 61 63 65 64 68 58
20 21 21 21 18 12 4 5 3 11 13 16 9 6 13 18 20 26 33 34 34 39 49 60 61 64 66 64 61 59 56 59 62 64 64 66 65 62
24 25 23 20 19 17 14 9 6 8 6 5 9 10 7 8 17 20 24 30 34 37 43 54 57 58 57 57 59 57 55 56 55 57 63 64 64 62
22 24 26 29 29 23 22 17 14 20 17 19 14 15 13 15 12 16 22 27 31 33 36 43 51 52 51 53 52 52 54 55 54 53 53 55 58 61
19 21 22 23 25 28 30 26 21 15 14 14 20 22 18 11 9 10 11 15 27 28 31 32 40 47 47 46 47 48 49 50 52 53 55 57 60 64
Wind_Direction
279 278 278 278 277 275 272 272 272 270 268 268 268 267 266 265 262 256 249 239 236 239 239 226 227 233 233 235 235 240 241 243 244 246 249 254 254 256
285 284 284 283 281 278 275 272 269 268 268 265 263 262 261 258 255 251 244 238 235 235 237 232 226 229 232 234 234 237 240 241 243 245 247 251 255 256
286 284 283 282 280 279 277 276 274 270 264 260 257 254 253 251 246 240 231 234 232 229 232 237 232 227 229 231 232 236 239 240 242 246 247 249 253 255
287 286 285 284 282 280 278 276 274 273 269 261 254 251 247 245 239 235 227 231 230 229 229 234 235 227 229 232 230 233 237 239 241 242 246 249 250 253
287 286 285 283 280 276 272 268 265 264 265 264 254 247 243 239 237 230 227 226 220 224 227 229 229 231 229 228 232 232 234 239 240 245 246 246 250 255
286 282 278 273 271 269 266 265 263 262 262 262 257 243 237 234 234 230 229 229 225 224 230 219 224 229 234 233 228 233 236 238 241 240 246 246 251 253
276 268 266 265 266 265 264 263 262 262 263 261 257 249 238 231 231 231 230 230 227 221 213 209 214 221 231 233 236 233 234 236 239 241 243 246 250 251
272 272 270 269 267 265 266 264 260 259 258 261 259 252 245 235 230 229 229 227 227 221 216 209 207 221 219 221 227 230 234 239 241 245 247 245 248 250
277 276 278 275 270 269 267 265 260 256 258 258 257 257 249 238 230 227 228 225 226 224 225 215 213 218 214 220 223 227 231 237 239 239 244 248 252 256
281 282 277 271 268 268 266 263 260 259 259 260 258 256 253 244 233 226 225 224 223 227 231 220 217 216 223 213 215 219 227 231 235 240 241 244 248 244
284 282 280 275 272 270 267 263 264 266 261 258 257 262 250 244 237 228 225 224 222 225 227 233 223 220 215 213 211 225 220 223 227 228 234 238 240 241
287 284 283 281 279 274 272 271 267 262 258 254 252 261 256 240 239 231 223 224 223 222 225 230 225 212 214 214 213 215 214 218 221 226 228 232 235 238
289 289 284 285 287 285 277 272 270 262 255 246 243 264 260 239 234 230 225 223 222 223 221 226 230 224 215 211 211 215 216 214 217 221 223 228 232 236
292 290 281 284 284 271 277 280 276 269 258 240 242 253 267 245 230 227 225 223 221 221 220 219 223 225 215 215 211 217 222 214 217 223 223 229 228 237
307 282 285 277 272 274 277 287 286 276 259 238 242 252 252 241 225 223 223 220 220 219 219 217 219 224 225 214 221 215 211 216 215 222 231 232 235 239
324 287 296 300 281 282 325 303 299 293 272 258 247 251 246 233 224 226 225 222 219 217 220 216 217 221 225 220 216 214 212 210 221 224 229 233 237 241
321 312 292 292 281 243 304 299 297 326 305 255 256 239 233 234 226 223 223 224 220 216 216 216 216 217 223 226 225 221 214 213 222 222 223 230 234 229
316 311 305 284 303 280 315 318 338 338 349 312 230 210 220 222 222 220 221 218 219 215 214 215 216 217 219 225 226 226 225 229 233 228 229 232 241 243
12 9 357 319 301 292 296 289 340 357 23 34 78 189 204 210 208 205 208 212 217 214 214 214 214 215 218 218 223 225 229 233 236 232 234 240 245 241
38 32 35 38 44 51 29 281 303 319 331 359 43 156 192 190 204 212 213 212 211 213 211 213 213 214 217 218 220 223 226 230 232 235 235 241 247 251
67 66 58 46 47 62 64 56 44 48 65 47 67 79 96 190 194 195 199 203 201 205 207 210 211 214 215 216 218 220 223 225 230 236 238 241 246 249
56 52 47 50 58 60 68 81 86 76 69 51 74 101 98 79 131 184 194 198 198 198 200 204 210 211 212 213 217 220 222 225 229 232 237 240 244 247
56 55 52 45 43 50 60 64 70 68 72 77 86 85 91 72 80 88 109 172 177 175 175 189 206 210 211 212 216 220 223 227 231 234 238 242 246 250